Home   Weather   Pictou   Past weeks

Flag for Canada Past Weather in Pictou, Nova Scotia, Canada — Yesterday and Last 2 Weeks

46 °F


Feels Like: 38 °F
Forecast: N/A
Wind: 24 mph from Southeast

Location: Caribou Point

Current Time: Oct 28, 2016 at 6:49:55 PM

Latest Report: Oct 28, 2016 at 6:00 PM

Visibility: N/A

Pressure: 30.24 "Hg

Humidity: 74%

Dew Point: 38 °F

Location of PictouLocation

Past Weather in Pictou — Graph


Pictou Temperature Yesterday

Maximum temperature yesterday: 46 °F (at 12:00 AM)
Minimum temperature yesterday: 40 °F (at 7:00 PM)
Average temperature yesterday: 43 °F

High & Low Weather Summary for the Past Weeks

High70 °F (Oct 19, 4:00 PM)100% (Oct 14, 9:00 AM)30.50 "Hg (Oct 14, 9:00 AM)
Low37 °F (Oct 28, 8:00 AM)46% (Oct 24, 2:00 PM)29.08 "Hg (Oct 22, 8:00 PM)
Average51 °F76%29.94 "Hg
* Reported Oct 13 5:00 PM — Oct 28 5:00 PM, Pictou, Weather by CustomWeather, © 2016

Note: Actual official high and low records may vary slightly from our data, if they occured in-between our weather recording intervals... More about our weather records


Pictou Weather History for the Previous 24 Hours

Scroll right to see more
Time TempWeatherWind HumidityBarometerVisibility
5:00 PM
Fri, Oct 28
47 °FCool.22 mph71%30.26 "HgN/A
4:00 PM47 °FCool.20 mph63%30.28 "HgN/A
3:00 PM46 °FCool.17 mph67%30.30 "HgN/A
2:00 PM44 °FQuite cool.17 mph75%30.32 "HgN/A
1:00 PM45 °FQuite cool.15 mph71%30.37 "HgN/A
12:00 PM44 °FQuite cool.18 mph69%30.40 "HgN/A
11:00 AM44 °FQuite cool.17 mph75%30.42 "HgN/A
10:00 AM43 °FQuite cool.20 mph76%30.45 "HgN/A
9:00 AM38 °FChilly.12 mph85%30.45 "HgN/A
8:00 AM37 °FChilly.2 mph86%30.45 "HgN/A
7:00 AM40 °FQuite cool.5 mph79%30.43 "HgN/A
6:00 AM42 °FQuite cool.14 mph76%30.43 "HgN/A
5:00 AM41 °FQuite cool.9 mph68%30.45 "HgN/A
4:00 AM41 °FQuite cool.9 mph70%30.47 "HgN/A
3:00 AM38 °FChilly.6 mph63%30.47 "HgN/A
2:00 AM40 °FQuite cool.10 mph64%30.48 "HgN/A
1:00 AM40 °FQuite cool.10 mph61%30.49 "HgN/A
12:00 AM41 °FQuite cool.10 mph63%30.49 "HgN/A
11:00 PM
Thu, Oct 27
41 °FQuite cool.10 mph60%30.50 "HgN/A
10:00 PM42 °FQuite cool.13 mph64%30.50 "HgN/A
9:00 PM41 °FQuite cool.13 mph63%30.49 "HgN/A
8:00 PM42 °FQuite cool.13 mph61%30.48 "HgN/A
7:00 PM40 °FQuite cool.12 mph68%30.47 "HgN/A
6:00 PM42 °FQuite cool.14 mph65%30.45 "HgN/A
Weather by CustomWeather, © 2016

See weather overviewHow to use our weather pages